Change the Weather History Date:

Wednesday, November 13, 2013

  Actual Average (KTVC) Record (KTVC)
Temperature  
Mean Temperature 36 °F 38 °F  
Max Temperature 42 °F 45 °F 74 °F (2013)
Min Temperature 30 °F 31 °F 11 °F (1911)
Degree Days  
Heating Degree Days 29 27  
Month to date heating degree days 318  
Since 1 July heating degree days 1105  
Moisture  
Dew Point 25 °F    
Average Humidity 62    
Maximum Humidity 75    
Minimum Humidity 53    
Precipitation  
Precipitation 0.00 in 0.09 in 1.22 in (1937)
Month to date precipitation 1.20  
Year to date precipitation 29.06  
Sea Level Pressure  
Sea Level Pressure 30.20 in    
Wind  
Wind Speed 13 mph (SW)    
Max Wind Speed 28 mph    
Max Gust Speed 41 mph    
Visibility 10 miles    
Events      
T = Trace of Precipitation, MM = Missing Value Source: NWS Daily Summary

Daily Weather History Graph

Daily Weather History Graph

Search for Another Location

Airport or City:

Trip Planner

Search our weather history database for the weather conditions in past years. The results will help you decide how hot, cold, wet, or windy it might be!

Date:

Astronomy

Nov. 13, 2013 Rise Set
Actual Time 7:39 AM EST 5:18 PM EST
Civil Twilight 7:07 AM EST 5:50 PM EST
Nautical Twilight 6:32 AM EST 6:25 PM EST
Astronomical Twilight 5:58 AM EST 6:59 PM EST
Moon 3:13 PM EST (11/13) 3:22 AM EST (11/13)
Length of Visible Light 10h 42m
Length of Day
9h 39m
Waxing Gibbous, 84% of the Moon is Illuminated
Nov 13
Waxing Gibbous
Nov 17
Full
Nov 25
Last Quarter
Dec 2
New
Dec 9
First Quarter

Hourly Weather History & Observations

Time (EST) Temp. Windchill Dew Point Humidity Pressure Visibility Wind Dir Wind Speed Gust Speed Precip Events Conditions
12:13 AM 31.3 °F 22.1 °F 19.6 °F 62% 30.45 in 10.0 mi West 11.5 mph 17.3 mph N/A   Clear
12:33 AM 31.1 °F 23.1 °F 20.1 °F 64% 30.46 in 10.0 mi WNW 9.2 mph - N/A   Scattered Clouds
12:53 AM 30.7 °F 20.9 °F 19.9 °F 64% 30.45 in 10.0 mi West 12.7 mph 18.4 mph N/A   Scattered Clouds
1:13 AM 30.6 °F 21.8 °F 19.4 °F 63% 30.44 in 10.0 mi WNW 10.4 mph - N/A   Scattered Clouds
1:33 AM 30.0 °F 21.1 °F 19.2 °F 64% 30.43 in 10.0 mi West 10.4 mph - N/A   Clear
1:53 AM 30.2 °F 21.9 °F 19.8 °F 65% 30.43 in 10.0 mi West 9.2 mph - N/A   Clear
2:13 AM 30.6 °F 24.7 °F 19.9 °F 65% 30.43 in 10.0 mi West 5.8 mph 16.1 mph N/A   Clear
2:34 AM 30.6 °F 22.4 °F 20.1 °F 65% 30.43 in 10.0 mi West 9.2 mph - N/A   Clear
2:54 AM 30.4 °F 25.6 °F 20.5 °F 67% 30.42 in 10.0 mi West 4.6 mph - N/A   Clear
3:14 AM 30.4 °F 24.5 °F 21.2 °F 69% 30.41 in 10.0 mi West 5.8 mph - N/A   Scattered Clouds
3:34 AM 30.6 °F 21.8 °F 21.6 °F 69% 30.41 in 10.0 mi West 10.4 mph - N/A   Scattered Clouds
3:54 AM 30.7 °F 24.1 °F 21.9 °F 70% 30.40 in 10.0 mi West 6.9 mph - N/A   Mostly Cloudy
4:14 AM 30.2 °F 23.4 °F 22.1 °F 72% 30.39 in 10.0 mi West 6.9 mph - N/A   Scattered Clouds
4:34 AM 30.7 °F 22.6 °F 22.8 °F 72% 30.38 in 10.0 mi WSW 9.2 mph - N/A   Mostly Cloudy
4:54 AM 30.2 °F 22.6 °F 23.0 °F 75% 30.38 in 10.0 mi West 8.1 mph - N/A   Scattered Clouds
5:14 AM 30.4 °F 22.2 °F 22.8 °F 73% 30.37 in 10.0 mi WSW 9.2 mph 16.1 mph N/A   Scattered Clouds
5:34 AM 30.6 °F 23.1 °F 23.0 °F 74% 30.37 in 10.0 mi WSW 8.1 mph 16.1 mph N/A   Scattered Clouds
5:54 AM 30.7 °F 21.4 °F 23.0 °F 73% 30.37 in 10.0 mi WSW 11.5 mph 19.6 mph N/A   Scattered Clouds
6:14 AM 31.1 °F 20.5 °F 23.7 °F 74% 30.36 in 10.0 mi West 15.0 mph - N/A   Scattered Clouds
6:34 AM 31.6 °F 22.1 °F 22.8 °F 70% 30.35 in 10.0 mi WSW 12.7 mph - N/A   Scattered Clouds
6:55 AM 32.0 °F 22.5 °F 21.7 °F 66% 30.35 in 10.0 mi WSW 12.7 mph 17.3 mph N/A   Clear
7:15 AM 32.0 °F 23.6 °F 21.7 °F 66% 30.34 in 10.0 mi WSW 10.4 mph - N/A   Clear
7:35 AM 32.0 °F 24.8 °F 21.4 °F 65% 30.34 in 10.0 mi WSW 8.1 mph 17.3 mph N/A   Clear
7:55 AM 32.0 °F 23.0 °F 21.4 °F 65% 30.34 in 10.0 mi WSW 11.5 mph 16.1 mph N/A   Clear
8:15 AM 32.4 °F 22.1 °F 21.4 °F 64% 30.33 in 10.0 mi WSW 15.0 mph 20.7 mph N/A   Clear
8:35 AM 32.9 °F 24.7 °F 21.7 °F 64% 30.32 in 10.0 mi SW 10.4 mph 18.4 mph N/A   Clear
8:55 AM 33.1 °F 24.4 °F 23.0 °F 66% 30.31 in 10.0 mi WSW 11.5 mph 20.7 mph N/A   Clear
9:15 AM 33.1 °F 24.4 °F 21.9 °F 64% 30.31 in 10.0 mi WSW 11.5 mph 20.7 mph N/A   Clear
9:35 AM 34.3 °F 25.0 °F 22.3 °F 61% 30.30 in 10.0 mi WSW 13.8 mph 20.7 mph N/A   Clear
9:56 AM 34.2 °F 25.7 °F 23.2 °F 64% 30.29 in 10.0 mi SW 11.5 mph 20.7 mph N/A   Clear
10:16 AM 35.8 °F 27.3 °F 23.0 °F 60% 30.28 in 10.0 mi SW 12.7 mph 21.9 mph N/A   Clear
10:36 AM 36.1 °F 26.2 °F 22.6 °F 58% 30.27 in 10.0 mi WSW 17.3 mph 24.2 mph N/A   Clear
10:56 AM 37.8 °F 29.0 °F 24.4 °F 59% 30.27 in 10.0 mi WSW 15.0 mph 23.0 mph N/A   Clear
11:11 AM 36.7 °F 28.4 °F 24.1 °F 60% 30.26 in 10.0 mi SW 12.7 mph 23.0 mph N/A   Clear
11:31 AM 37.9 °F 28.5 °F 25.3 °F 60% 30.25 in 10.0 mi SW 17.3 mph 26.5 mph N/A   Clear
11:51 AM 37.6 °F 27.7 °F 26.4 °F 64% 30.23 in 10.0 mi SW 18.4 mph 26.5 mph N/A   Clear
12:11 PM 38.3 °F 29.3 °F 26.6 °F 63% 30.22 in 10.0 mi SSW 16.1 mph 27.6 mph N/A   Clear
12:32 PM 38.5 °F 29.9 °F 27.3 °F 64% 30.20 in 10.0 mi SSW 15.0 mph 26.5 mph N/A   Clear
12:52 PM 38.5 °F 29.9 °F 27.0 °F 63% 30.19 in 10.0 mi SW 15.0 mph 29.9 mph N/A   Clear
1:12 PM 39.2 °F 29.0 °F 27.7 °F 63% 30.18 in 10.0 mi SW 21.9 mph 28.8 mph N/A   Clear
1:32 PM 39.4 °F 31.8 °F 26.6 °F 60% 30.17 in 10.0 mi SW 12.7 mph 24.2 mph N/A   Clear
1:52 PM 39.2 °F 29.6 °F 26.2 °F 60% 30.15 in 10.0 mi SW 19.6 mph 28.8 mph N/A   Clear
2:12 PM 39.9 °F 32.1 °F 26.6 °F 59% 30.13 in 10.0 mi SSW 13.8 mph 31.1 mph N/A   Clear
2:32 PM 39.7 °F 30.6 °F 27.1 °F 61% 30.12 in 10.0 mi SSW 18.4 mph 33.4 mph N/A   Clear
2:52 PM 40.1 °F 29.9 °F 26.6 °F 59% 30.11 in 10.0 mi SSW 23.0 mph 34.5 mph N/A   Clear
3:12 PM 40.6 °F 31.2 °F 26.2 °F 57% 30.10 in 10.0 mi SSW 20.7 mph 31.1 mph N/A   Clear
3:32 PM 41.5 °F 33.8 °F 27.0 °F 56% 30.08 in 10.0 mi SSW 15.0 mph 31.1 mph N/A   Clear
3:52 PM 41.5 °F 32.4 °F 26.1 °F 54% 30.06 in 10.0 mi SSW 20.7 mph 34.5 mph N/A   Clear
4:12 PM 41.4 °F 31.9 °F 26.4 °F 55% 30.05 in 10.0 mi SSW 21.9 mph 33.4 mph N/A   Clear
4:33 PM 41.2 °F 31.4 °F 26.2 °F 55% 30.04 in 10.0 mi SSW 23.0 mph 32.2 mph N/A   Clear
4:53 PM 41.2 °F 32.1 °F 27.0 °F 57% 30.03 in 10.0 mi SSW 19.6 mph 33.4 mph N/A   Clear
5:13 PM 41.2 °F 31.4 °F 27.3 °F 58% 30.02 in 10.0 mi SSW 23.0 mph 41.4 mph N/A   Clear
5:33 PM 41.4 °F 31.9 °F 26.4 °F 55% 30.00 in 10.0 mi SW 21.9 mph 38.0 mph N/A   Clear
5:53 PM 41.5 °F 32.6 °F 27.0 °F 56% 30.00 in 10.0 mi SSW 19.6 mph 35.7 mph N/A   Clear
6:13 PM 41.9 °F 33.1 °F 27.3 °F 56% 30.00 in 10.0 mi SSW 19.6 mph 35.7 mph N/A   Clear
6:33 PM 42.1 °F 32.6 °F 28.4 °F 58% 30.00 in 10.0 mi SSW 23.0 mph 40.3 mph N/A   Clear
6:54 PM 42.3 °F 33.3 °F 27.7 °F 56% 30.00 in 10.0 mi SSW 20.7 mph 36.8 mph N/A   Clear
7:14 PM 42.3 °F 31.9 °F 27.7 °F 56% 30.00 in 10.0 mi SSW 27.6 mph 35.7 mph N/A   Clear
7:34 PM 42.3 °F 33.3 °F 28.2 °F 58% 30.00 in 10.0 mi SSW 20.7 mph 31.1 mph N/A   Clear
7:54 PM 42.1 °F 33.6 °F 28.6 °F 59% 30.00 in 10.0 mi SW 18.4 mph 33.4 mph N/A   Clear
8:14 PM 42.1 °F 34.2 °F 28.9 °F 60% 30.00 in 10.0 mi SW 16.1 mph 35.7 mph N/A   Clear
8:34 PM 42.1 °F 33.3 °F 28.2 °F 58% 29.99 in 10.0 mi SSW 19.6 mph 35.7 mph N/A   Clear
8:54 PM 42.1 °F 33.1 °F 28.4 °F 58% 30.01 in 10.0 mi SW 20.7 mph 34.5 mph N/A   Clear
9:14 PM 42.1 °F 32.8 °F 27.9 °F 57% 30.00 in 10.0 mi SW 21.9 mph 33.4 mph N/A   Clear
9:34 PM 41.9 °F 33.4 °F 28.4 °F 59% 30.00 in 10.0 mi SW 18.4 mph 36.8 mph N/A   Clear
9:54 PM 41.9 °F 32.8 °F 28.0 °F 58% 30.00 in 10.0 mi SW 20.7 mph 35.7 mph N/A   Clear
10:14 PM 41.9 °F 33.4 °F 27.5 °F 57% 30.00 in 10.0 mi SW 18.4 mph 31.1 mph N/A   Clear
10:35 PM 41.5 °F 31.9 °F 27.5 °F 57% 30.00 in 10.0 mi SW 23.0 mph 33.4 mph N/A   Clear
10:55 PM 41.7 °F 32.9 °F 28.0 °F 58% 29.99 in 10.0 mi SW 19.6 mph 35.7 mph N/A   Clear
11:15 PM 41.7 °F 34.1 °F 27.9 °F 58% 29.99 in 10.0 mi SW 15.0 mph 29.9 mph N/A   Clear
11:35 PM 41.9 °F 33.7 °F 27.0 °F 55% 29.99 in 10.0 mi SW 17.3 mph 28.8 mph N/A   Clear
11:55 PM 41.9 °F 34.0 °F 26.1 °F 53% 29.99 in 10.0 mi WSW 16.1 mph 29.9 mph N/A   Clear